Regional Weather Roundup
Issued by NWS Green Bay, WI

Home | Current Version | Previous Version | Text Only | Print | Product List | Glossary On
Versions: 1 2 3 4 5 6 7 8 9 10 11 12 13 14 15 16 17 18 19 20 21 22 23 24 25 26 27 28 29 30 31 32 33 34 35 36 37 38 39 40 41 42 43 44 45 46 47 48 49 50
000
ASUS43 KGRB 090011
RWRGRB

NORTH-CENTRAL AND NORTHEAST WISCONSIN REGIONAL WEATHER ROUNDUP
NATIONAL WEATHER SERVICE GREEN BAY WI
600 PM CST THU DEC 08 2016

WIZ005-009-010>012-018-019-090100-
NORTH CENTRAL WISCONSIN

CITY           SKY/WX    TMP DP  RH WIND       PRES   REMARKS
IRONWOOD       FLURRIES  23  15  71 NW13      30.28S
MANITOWISH WTR LGT SNOW  20  19  95 NW9       30.24R WCI   9
ARBOR VITAE    CLEAR     22  17  83 NW9       30.24R
EAGLE RIVER    FLURRIES  22  17  82 NW8       30.22R
LAND O LAKES   LGT SNOW  23  20  90 NW6       30.22S
RHINELANDER    PTCLDY    22  16  78 NW8G17    30.24R
PHILLIPS       CLOUDY    21  15  76 W6        30.28R
ANTIGO         LGT SNOW  22  21  95 W13       30.24R
TOMAHAWK       CLOUDY    22  16  77 NW10      30.27R
MERRILL        FLURRIES  22  17  80 NW9       30.28R
$$

WIZ013-073-090100-
NORTHEAST WISCONSIN

CITY           SKY/WX    TMP DP  RH WIND       PRES   REMARKS
IRON MOUNTAIN  CLEAR     23  16  74 NW8       30.19R
MARINETTE      CLEAR     28  19  69 MISG        N/A
OCONTO         MOCLDY    26  21  83 W5        30.25R
$$

WIZ017-030-035>037-045-090100-
CENTRAL WISCONSIN

CITY           SKY/WX    TMP DP  RH WIND       PRES   REMARKS
MEDFORD        CLOUDY    21  15  75 NW9       30.29R
WAUSAU         MOCLDY    21  15  78 W10       30.27R WCI  10
MOSINEE        PTCLDY    21  16  79 W10       30.29R
MARSHFIELD     CLOUDY    21  15  78 NW12      30.30R WCI   9
WISC RAPIDS    CLOUDY    22  15  75 W7        30.33R
STEVENS POINT  CLOUDY    21  13  71 W8        30.31R
WAUPACA        CLEAR     26  16  65 W9G16     30.30R
SHAWANO        FLURRIES  29  20  67 W10       30.27R
CLINTONVILLE   PTCLDY    27  18  69 W13       30.28R
WAUTOMA        PTCLDY    23  16  74 W12       30.32R
$$

WIZ038-039-048-051-090100-
FOX VALLEY

CITY           SKY/WX    TMP DP  RH WIND       PRES   REMARKS
NWS GREEN BAY  MOCLDY    28  19  69 W15       30.26R
APPLETON       PTCLDY    25  14  63 W14       30.25R
OSHKOSH        MOCLDY    24  15  68 W13       30.29R
FOND DU LAC    CLOUDY    25  14  63 W10       30.29R
$$

WIZ022-050-052-090100-
EAST CENTRAL WISCONSIN

CITY           SKY/WX    TMP DP  RH WIND       PRES   REMARKS
EPHRAIM        CLOUDY    30  20  66 NW9G18    30.19R
WASHINGTON ISL CLOUDY    29  18  63 NW9G17    30.19R
STURGEON BAY   CLOUDY    29  21  72 NW13G20   30.22R
MANITOWOC      MOCLDY    29  18  63 W16G25    30.25R
SHEBOYGAN      PTCLDY    26  16  65 W15G23    30.26R
$$

LMZ563-521-522-541>543-090100-
LAKESHORE

STATION/POSITION TIME  TEMP    WIND        PRES    VSBY  WAVE
                       AIR SEA DIR/SP/G                  HT/PER
                 (UTC) (F)     (DEG/KT/KT) (MB)    (MI)  (FT/S)
SHEBOYGAN LKSHOR 0000   27     290/ 17/ 20 1025.6R
KEWAUNEE LKSHORE 2348   28     300/  7/ 14 1023.1R
NORTHPORT PIER   2340   32     310/ 17/ 27 1022.4R
SISTER BAY LKSHO 2350   32      10/ 25/ 29   N/A
CHAMBERS ISLAND  2340   31     300/ 10/ 17 1022.7R
MENOMINEE LKSHOR 2348   29     290/ 10/ 13 1022.7R
$$




USA.gov is the U.S. government's official web portal to all federal, state and local government web resources and services.